This is the latest recevied weather packets stored in our database for station/object W4MSI. If no packets are shown the sender has not sent any weather packets the latest 10 day(s).
| Time | Temp. | Humidity | Pressure | Rain* | Wind** | Luminosity | Snow |
|---|---|---|---|---|---|---|---|
| 1777929005 | 26.11° C | 39% | 1008.9 hPa | 0 mm | - | 534 W/m² | - |
| 1777928702 | 26.67° C | 38% | 1009 hPa | 0 mm | - | 564 W/m² | - |
| 1777928398 | 26.67° C | 38% | 1009 hPa | 0 mm | - | 575 W/m² | - |
| 1777928096 | 26.11° C | 40% | 1008.9 hPa | 0 mm | - | 576 W/m² | - |
| 1777927794 | 26.11° C | 41% | 1009.1 hPa | 0 mm | - | 600 W/m² | - |
| 1777927492 | 26.11° C | 40% | 1008.9 hPa | 0 mm | - | 603 W/m² | - |
| 1777927191 | 26.11° C | 41% | 1009 hPa | 0 mm | - | 618 W/m² | - |
| 1777926889 | 26.11° C | 40% | 1009 hPa | 0 mm | - | 640 W/m² | - |
| 1777926584 | 26.11° C | 40% | 1009 hPa | 0 mm | - | 651 W/m² | - |
| 1777926281 | 26.11° C | 38% | 1009 hPa | 0 mm | - | 652 W/m² | - |
| 1777925978 | 25.56° C | 39% | 1009 hPa | 0 mm | - | 677 W/m² | - |
| 1777925675 | 25.56° C | 39% | 1009.3 hPa | 0 mm | - | 688 W/m² | - |
| 1777925373 | 25.56° C | 40% | 1009.2 hPa | 0 mm | - | 697 W/m² | - |
| 1777925069 | 26.11° C | 41% | 1009.3 hPa | 0 mm | - | 685 W/m² | - |
| 1777924766 | 26.11° C | 40% | 1009.5 hPa | 0 mm | - | 711 W/m² | - |
| 1777924462 | 26.11° C | 40% | 1009.6 hPa | 0 mm | - | 744 W/m² | - |
| 1777924158 | 26.11° C | 42% | 1009.5 hPa | 0 mm | - | 754 W/m² | - |
| 1777923854 | 25.56° C | 45% | 1009.7 hPa | 0 mm | - | 778 W/m² | - |
| 1777923551 | 26.11° C | 42% | 1009.6 hPa | 0 mm | - | 571 W/m² | - |
| 1777923248 | 26.11° C | 42% | 1009.7 hPa | 0 mm | - | 773 W/m² | - |
| 1777922947 | 25.56° C | 43% | 1009.7 hPa | 0 mm | - | 789 W/m² | - |
| 1777922644 | 25.56° C | 43% | 1010 hPa | 0 mm | - | 765 W/m² | - |
| 1777922342 | 25.56° C | 44% | 1009.9 hPa | 0 mm | - | 816 W/m² | - |
| 1777922040 | 25.56° C | 45% | 1010 hPa | 0 mm | - | 684 W/m² | - |
| 1777921735 | 25.56° C | 45% | 1010.1 hPa | 0 mm | - | 818 W/m² | - |
* Rain latest hour (hover to see other rain measurements)
** Current wind speed in m/s (hover to see current wind gust speed)